QPF
0.00 0.00 0.00 0.00 0.00 0.00 0.00 0.00 0.00 0.00 0.00 0.00 0.00 0.00 0.00 0.00 0.00 0.00 0.00 0.00 0.00 0.00 0.00 0.00 0.00 0.00 0.00 0.00 0.00 0.00 0.00 0.00 0.00 0.00 0.00 0.00 0.00 0.00 0.00 0.00 0.00 0.00 0.00 0.00
0.00 0.00 0.00 0.00 0.00 0.00 0.00 0.00 0.00 0.00 0.00 0.00 0.00 0.00 0.00 0.00 0.00 0.00 0.00 0.00 0.00 0.00 0.00 0.00 0.00 0.00 0.00 0.00 0.00 0.00 0.00 0.00 0.00 0.00 0.00 0.00 0.00 0.00 0.00 0.00 0.00 0.00 0.00 0.00
0.00 0.00 0.00 0.00 0.00 0.00 0.00 0.00 0.00 0.00 0.00 0.00 0.00 0.00 0.00 0.00 0.00 0.00 0.00 0.00 0.00 0.00 0.00 0.00 0.00 0.00 0.00 0.00 0.00 0.00 0.00 0.00 0.00 0.00 0.00 0.00 0.00 0.00 0.00 0.00 0.00 0.00 0.00 0.00
0.00 0.00 0.00 0.00 0.00 0.00 0.00 0.00 0.00 0.00 0.00 0.00 0.00 0.00 0.00 0.00 0.00 0.00 0.00 0.00 0.00 0.00 0.00 0.00 0.00 0.00 0.00 0.00 0.00 0.00 0.00 0.00 0.00 0.00 0.00 0.00 0.00 0.00 0.00 0.00 0.00 0.00 0.00 0.00
0.00 0.00 0.00 0.00 0.00 0.00 0.00 0.00 0.00 0.00 0.00 0.00 0.00 0.00 0.00 0.00 0.00 0.00 0.00 0.00 0.00 0.00 0.00 0.00 0.00 0.00 0.00 0.00 0.00 0.00 0.00 0.00 0.00 0.00 0.00 0.00 0.00 0.00 0.00 0.00 0.00 0.00 0.00 0.00
0.00 0.00 0.00 0.00 0.00 0.00 0.00 0.00 0.00 0.00 0.00 0.00 0.00 0.00 0.00 0.00 0.00 0.00 0.00 0.00 0.00 0.00 0.00 0.00 0.00 0.00 0.00 0.00 0.00 0.00 0.00 0.00 0.00 0.00 0.00 0.00 0.00 0.00 0.00 0.00 0.00 0.00 0.00 0.00
0.00 0.00 0.00 0.00 0.00 0.00 0.00 0.00 0.00 0.00 0.00 0.00 0.00 0.00 0.00 0.00 0.00 0.00 0.00 0.00 0.00 0.00 0.00 0.00 0.00 0.00 0.00 0.00 0.00 0.00 0.00 0.00 0.00 0.00 0.00 0.00 0.00 0.00 0.00 0.00 0.00 0.00 0.00 0.00
0.00 0.00 0.00 0.00 0.00 0.00 0.00 0.00 0.00 0.00 0.00 0.00 0.00 0.00 0.00 0.00 0.00 0.00 0.00 0.00 0.00 0.00 0.00 0.00 0.00 0.00 0.00 0.00 0.00 0.00 0.00 0.00 0.00 0.00 0.00 0.00 0.00 0.00 0.00 0.00 0.00 0.00 0.00 0.00
0.00 0.00 0.00 0.00 0.00 0.00 0.00 0.00 0.00 0.00 0.00 0.00 0.00 0.00 0.00 0.00 0.00 0.00 0.00 0.00 0.00 0.00 0.00 0.00 0.00 0.00 0.00 0.00 0.00 0.00 0.00 0.00 0.00 0.00 0.00 0.00 0.00 0.00 0.00 0.00 0.00 0.00 0.00 0.00
0.00 0.00 0.00 0.00 0.00 0.00 0.00 0.00 0.00 0.00 0.00 0.00 0.00 0.00 0.00 0.00 0.00 0.00 0.00 0.00 0.00 0.00 0.00 0.00 0.00 0.00 0.00 0.00 0.00 0.00 0.00 0.00 0.00 0.00 0.00 0.00 0.00 0.00 0.00 0.00 0.00 0.00 0.00 0.00
0.00 0.00 0.00 0.00 0.00 0.00 0.00 0.00 0.00 0.00 0.00 0.00 0.00 0.00 0.00 0.00 0.00 0.00 0.00 0.00 0.00 0.00 0.00 0.00 0.00 0.00 0.00 0.00 0.00 0.00 0.00 0.00 0.00 0.00 0.00 0.00 0.00 0.00 0.00 0.00 0.00 0.00 0.00 0.00
0.00 0.00 0.00 0.00 0.00 0.00 0.00 0.00 0.00 0.00 0.00 0.00 0.00 0.00 0.00 0.00 0.00 0.00 0.00 0.00 0.00 0.00 0.00 0.00 0.00 0.00 0.00 0.00 0.00 0.00 0.00 0.00 0.00 0.00 0.00 0.00 0.00 0.00 0.00 0.00 0.00 0.00 0.00 0.00
0.00 0.00 0.00 0.00 0.00 0.00 0.00 0.00 0.00 0.00 0.00 0.00 0.00 0.00 0.00 0.00 0.00 0.00 0.00 0.00 0.00 0.00 0.00 0.00 0.00 0.00 0.00 0.00 0.00 0.00 0.00 0.00 0.00 0.00 0.00 0.00 0.00 0.00 0.00 0.00 0.00 0.00 0.00 0.00
0.00 0.00 0.00 0.00 0.00 0.00 0.00 0.00 0.00 0.00 0.00 0.00 0.00 0.00 0.00 0.00 0.00 0.00 0.00 0.00 0.00 0.00 0.00 0.00 0.00 0.00 0.00 0.00 0.00 0.00 0.00 0.00 0.00 0.00 0.00 0.00 0.00 0.00 0.00 0.00 0.00 0.00 0.00 0.00
0.00 0.00 0.00 0.00 0.00 0.00 0.00 0.00 0.00 0.00 0.00 0.00 0.00 0.00 0.00 0.00 0.00 0.00 0.00 0.00 0.00 0.00 0.00 0.00 0.00 0.00 0.00 0.00 0.00 0.00 0.00 0.00 0.00 0.00 0.00 0.00 0.00 0.00 0.00 0.00 0.00 0.00 0.00 0.00
0.00 0.00 0.00 0.00 0.00 0.00 0.00 0.00 0.00 0.00 0.00 0.00 0.00 0.00 0.00 0.00 0.00 0.00 0.00 0.00 0.00 0.00 0.00 0.00 0.00 0.00 0.00 0.00 0.00 0.00 0.00 0.00 0.00 0.00 0.00 0.00 0.00 0.00 0.00 0.00 0.00 0.00 0.00 0.00
0.00 0.00 0.00 0.00 0.00 0.00 0.00 0.00 0.00 0.00 0.00 0.00 0.00 0.00 0.00 0.00 0.00 0.00 0.00 0.00 0.00 0.00 0.00 0.00 0.00 0.00 0.00 0.00 0.00 0.00 0.00 0.00 0.00 0.00 0.00 0.00 0.00 0.00 0.00 0.00 0.00 0.00 0.00 0.00
0.00 0.00 0.00 0.00 0.00 0.00 0.00 0.00 0.00 0.00 0.00 0.00 0.00 0.00 0.00 0.00 0.00 0.00 0.00 0.00 0.00 0.00 0.00 0.00 0.00 0.00 0.00 0.00 0.00 0.00 0.00 0.00 0.00 0.00 0.00 0.00 0.00 0.00 0.00 0.00 0.00 0.00 0.00 0.00
0.00 0.00 0.00 0.00 0.00 0.00 0.00 0.00 0.00 0.00 0.00 0.00 0.00 0.00 0.00 0.00 0.00 0.00 0.00 0.00 0.00 0.00 0.00 0.00 0.00 0.00 0.00 0.00 0.00 0.00 0.00 0.00 0.00 0.00 0.00 0.00 0.00 0.00 0.00 0.00 0.00 0.00 0.00 0.00
0.00 0.00 0.00 0.00 0.00 0.00 0.00 0.00 0.00 0.00 0.00 0.00 0.00 0.00 0.00 0.00 0.00 0.00 0.00 0.00 0.00 0.00 0.00 0.00 0.00 0.00 0.00 0.00 0.00 0.00 0.00 0.00 0.00 0.00 0.00 0.00 0.00 0.00 0.00 0.00 0.00 0.00 0.00 0.00
0.00 0.00 0.00 0.00 0.00 0.00 0.00 0.00 0.00 0.00 0.00 0.00 0.00 0.00 0.00 0.00 0.00 0.00 0.00 0.00 0.00 0.00 0.00 0.00 0.00 0.00 0.00 0.00 0.00 0.00 0.00 0.00 0.00 0.00 0.00 0.00 0.00 0.00 0.00 0.00 0.00 0.00 0.00 0.00
0.00 0.00 0.00 0.00 0.00 0.00 0.00 0.00 0.00 0.00 0.00 0.00 0.00 0.00 0.00 0.00 0.00 0.00 0.00 0.00 0.00 0.00 0.00 0.00 0.00 0.00 0.00 0.00 0.00 0.00 0.00 0.00 0.00 0.00 0.00 0.00 0.00 0.00 0.00 0.00 0.00 0.00 0.00 0.00
0.00 0.00 0.00 0.00 0.00 0.00 0.00 0.00 0.00 0.00 0.00 0.00 0.00 0.00 0.00 0.00 0.00 0.00 0.00 0.00 0.00 0.00 0.00 0.00 0.00 0.00 0.00 0.00 0.00 0.00 0.00 0.00 0.00 0.00 0.00 0.00 0.00 0.00 0.00 0.00 0.00 0.00 0.00 0.00
0.00 0.00 0.00 0.00 0.00 0.00 0.00 0.00 0.00 0.00 0.00 0.00 0.00 0.00 0.00 0.00 0.00 0.00 0.00 0.00 0.00 0.00 0.00 0.00 0.00 0.00 0.00 0.00 0.00 0.00 0.00 0.00 0.00 0.00 0.00 0.00 0.00 0.00 0.00 0.00 0.00 0.00 0.00 0.00
0.00 0.00 0.00 0.00 0.00 0.00 0.00 0.00 0.00 0.00 0.00 0.00 0.00 0.00 0.00 0.00 0.00 0.00 0.00 0.00 0.00 0.00 0.00 0.00 0.00 0.00 0.00 0.00 0.00 0.00 0.00 0.00 0.00 0.00 0.00 0.00 0.00 0.00 0.00 0.00 0.00 0.00 0.00 0.00
0.00 0.00 0.00 0.00 0.00 0.00 0.00 0.00 0.00 0.00 0.00 0.00 0.00 0.00 0.00 0.00 0.00 0.00 0.00 0.00 0.00 0.00 0.00 0.00 0.00 0.00 0.00 0.00 0.00 0.00 0.00 0.00 0.00 0.00 0.00 0.00 0.00 0.00 0.00 0.00 0.00 0.00 0.00 0.00
0.00 0.00 0.00 0.00 0.00 0.00 0.00 0.00 0.00 0.00 0.00 0.00 0.00 0.00 0.00 0.00 0.00 0.00 0.00 0.00 0.00 0.00 0.00 0.00 0.00 0.00 0.00 0.00 0.00 0.00 0.00 0.00 0.00 0.00 0.00 0.00 0.00 0.00 0.00 0.00 0.00 0.00 0.00 0.00
MSLP
1020.82 1021.09 1021.33 1021.53 1021.66 1021.72 1021.69 1021.58 1021.40 1021.16 1020.89 1020.61 1020.34 1020.09 1019.85 1019.63 1019.42 1019.20 1018.96 1018.70 1018.42 1018.14 1017.87 1017.63 1017.44 1017.29 1017.18 1017.11 1017.05 1017.00 1016.92 1016.81 1016.66 1016.47 1016.26 1016.03 1015.79 1015.54 1015.29 1015.03 1014.75 1014.44 1014.09 1013.71
1020.86 1021.01 1021.10 1021.10 1021.03 1020.89 1020.69 1020.46 1020.22 1019.98 1019.77 1019.60 1019.46 1019.34 1019.22 1019.10 1018.95 1018.75 1018.51 1018.24 1017.96 1017.68 1017.43 1017.24 1017.11 1017.04 1017.03 1017.05 1017.07 1017.07 1017.03 1016.93 1016.78 1016.58 1016.35 1016.10 1015.85 1015.60 1015.36 1015.11 1014.86 1014.57 1014.25 1013.89
1020.97 1021.00 1020.91 1020.72 1020.45 1020.12 1019.77 1019.43 1019.13 1018.90 1018.74 1018.65 1018.62 1018.61 1018.60 1018.55 1018.45 1018.28 1018.06 1017.78 1017.50 1017.23 1017.01 1016.87 1016.81 1016.82 1016.89 1016.99 1017.08 1017.13 1017.12 1017.03 1016.88 1016.67 1016.41 1016.15 1015.88 1015.63 1015.40 1015.17 1014.93 1014.67 1014.37 1014.02
1021.13 1021.01 1020.75 1020.37 1019.91 1019.41 1018.92 1018.49 1018.15 1017.92 1017.80 1017.78 1017.84 1017.92 1018.00 1018.02 1017.97 1017.83 1017.62 1017.36 1017.08 1016.84 1016.66 1016.56 1016.56 1016.63 1016.77 1016.93 1017.07 1017.16 1017.18 1017.11 1016.95 1016.73 1016.47 1016.20 1015.94 1015.70 1015.47 1015.26 1015.04 1014.80 1014.52 1014.19
1021.23 1020.95 1020.53 1019.98 1019.36 1018.72 1018.13 1017.62 1017.24 1017.01 1016.93 1016.97 1017.10 1017.27 1017.41 1017.50 1017.49 1017.40 1017.22 1016.99 1016.74 1016.53 1016.38 1016.32 1016.37 1016.49 1016.67 1016.87 1017.04 1017.16 1017.19 1017.13 1016.99 1016.78 1016.54 1016.28 1016.04 1015.83 1015.63 1015.44 1015.25 1015.03 1014.76 1014.44
1021.17 1020.75 1020.17 1019.48 1018.73 1017.99 1017.31 1016.76 1016.36 1016.14 1016.10 1016.19 1016.38 1016.61 1016.82 1016.97 1017.03 1016.99 1016.85 1016.66 1016.46 1016.28 1016.17 1016.15 1016.22 1016.36 1016.56 1016.78 1016.96 1017.09 1017.13 1017.09 1016.97 1016.80 1016.59 1016.38 1016.18 1016.01 1015.86 1015.72 1015.56 1015.36 1015.11 1014.80
1020.86 1020.31 1019.61 1018.82 1017.98 1017.17 1016.45 1015.88 1015.48 1015.28 1015.27 1015.41 1015.65 1015.94 1016.21 1016.42 1016.55 1016.56 1016.50 1016.36 1016.21 1016.08 1016.00 1016.00 1016.08 1016.23 1016.43 1016.63 1016.81 1016.93 1016.99 1016.97 1016.88 1016.75 1016.60 1016.45 1016.32 1016.22 1016.12 1016.03 1015.92 1015.76 1015.53 1015.23
1020.28 1019.63 1018.86 1018.01 1017.13 1016.29 1015.57 1015.00 1014.62 1014.44 1014.46 1014.63 1014.91 1015.25 1015.57 1015.84 1016.03 1016.11 1016.11 1016.05 1015.95 1015.87 1015.82 1015.84 1015.92 1016.05 1016.23 1016.41 1016.57 1016.68 1016.74 1016.75 1016.70 1016.62 1016.54 1016.47 1016.41 1016.38 1016.36 1016.33 1016.27 1016.15 1015.95 1015.67
1019.50 1018.80 1017.99 1017.12 1016.24 1015.42 1014.72 1014.18 1013.83 1013.67 1013.71 1013.90 1014.21 1014.56 1014.92 1015.23 1015.47 1015.61 1015.68 1015.67 1015.64 1015.60 1015.59 1015.61 1015.69 1015.81 1015.95 1016.10 1016.23 1016.34 1016.40 1016.42 1016.42 1016.40 1016.39 1016.39 1016.41 1016.45 1016.49 1016.52 1016.51 1016.43 1016.27 1016.03
1018.65 1017.94 1017.14 1016.30 1015.46 1014.68 1014.03 1013.52 1013.20 1013.06 1013.10 1013.28 1013.58 1013.93 1014.28 1014.60 1014.87 1015.05 1015.17 1015.22 1015.23 1015.24 1015.25 1015.29 1015.37 1015.47 1015.59 1015.71 1015.82 1015.91 1015.98 1016.02 1016.05 1016.08 1016.13 1016.19 1016.28 1016.38 1016.48 1016.55 1016.59 1016.55 1016.44 1016.23
1017.91 1017.23 1016.47 1015.69 1014.91 1014.20 1013.60 1013.14 1012.83 1012.69 1012.70 1012.85 1013.09 1013.39 1013.70 1013.99 1014.24 1014.43 1014.57 1014.66 1014.71 1014.75 1014.80 1014.86 1014.94 1015.03 1015.14 1015.25 1015.35 1015.43 1015.51 1015.57 1015.63 1015.70 1015.79 1015.89 1016.02 1016.15 1016.29 1016.40 1016.47 1016.47 1016.40 1016.25
1017.44 1016.81 1016.13 1015.42 1014.72 1014.09 1013.54 1013.10 1012.80 1012.63 1012.58 1012.64 1012.79 1012.99 1013.21 1013.42 1013.62 1013.77 1013.90 1013.99 1014.06 1014.13 1014.20 1014.29 1014.38 1014.49 1014.61 1014.72 1014.83 1014.93 1015.02 1015.11 1015.19 1015.29 1015.39 1015.52 1015.66 1015.80 1015.95 1016.07 1016.15 1016.19 1016.16 1016.06
1017.31 1016.75 1016.15 1015.53 1014.92 1014.35 1013.85 1013.43 1013.10 1012.87 1012.74 1012.68 1012.69 1012.75 1012.83 1012.92 1013.01 1013.09 1013.16 1013.23 1013.30 1013.38 1013.47 1013.58 1013.71 1013.85 1013.99 1014.14 1014.28 1014.41 1014.53 1014.65 1014.76 1014.87 1014.99 1015.11 1015.25 1015.38 1015.51 1015.62 1015.70 1015.75 1015.76 1015.71
1017.53 1017.04 1016.52 1015.98 1015.44 1014.93 1014.46 1014.04 1013.68 1013.38 1013.13 1012.93 1012.78 1012.66 1012.57 1012.50 1012.44 1012.40 1012.39 1012.40 1012.44 1012.51 1012.61 1012.75 1012.91 1013.10 1013.30 1013.50 1013.69 1013.87 1014.04 1014.19 1014.34 1014.47 1014.59 1014.71 1014.82 1014.93 1015.02 1015.11 1015.18 1015.23 1015.26 1015.27
1017.99 1017.57 1017.12 1016.65 1016.18 1015.72 1015.27 1014.85 1014.44 1014.05 1013.69 1013.34 1013.01 1012.71 1012.42 1012.16 1011.94 1011.76 1011.62 1011.54 1011.52 1011.56 1011.66 1011.81 1012.01 1012.24 1012.50 1012.76 1013.02 1013.27 1013.51 1013.72 1013.90 1014.06 1014.20 1014.31 1014.40 1014.48 1014.54 1014.60 1014.64 1014.68 1014.72 1014.76
1018.56 1018.20 1017.80 1017.40 1016.98 1016.56 1016.14 1015.70 1015.26 1014.80 1014.33 1013.84 1013.35 1012.86 1012.39 1011.94 1011.54 1011.19 1010.91 1010.71 1010.61 1010.59 1010.65 1010.80 1011.01 1011.28 1011.59 1011.92 1012.25 1012.58 1012.89 1013.17 1013.41 1013.62 1013.78 1013.90 1013.99 1014.05 1014.09 1014.11 1014.13 1014.16 1014.20 1014.25
1019.08 1018.76 1018.42 1018.07 1017.71 1017.33 1016.93 1016.50 1016.03 1015.52 1014.97 1014.38 1013.75 1013.11 1012.47 1011.85 1011.27 1010.75 1010.32 1009.99 1009.77 1009.66 1009.66 1009.77 1009.97 1010.24 1010.58 1010.96 1011.36 1011.76 1012.15 1012.50 1012.82 1013.08 1013.29 1013.45 1013.55 1013.62 1013.65 1013.66 1013.66 1013.67 1013.70 1013.76
1019.45 1019.17 1018.88 1018.58 1018.27 1017.94 1017.57 1017.17 1016.71 1016.18 1015.58 1014.92 1014.21 1013.45 1012.68 1011.91 1011.19 1010.51 1009.93 1009.45 1009.09 1008.86 1008.76 1008.79 1008.93 1009.18 1009.51 1009.91 1010.35 1010.80 1011.25 1011.68 1012.07 1012.41 1012.69 1012.90 1013.04 1013.14 1013.18 1013.19 1013.20 1013.20 1013.22 1013.27
1019.62 1019.38 1019.13 1018.88 1018.62 1018.35 1018.04 1017.67 1017.25 1016.74 1016.15 1015.47 1014.72 1013.90 1013.05 1012.18 1011.33 1010.53 1009.80 1009.17 1008.66 1008.28 1008.05 1007.96 1008.00 1008.17 1008.45 1008.81 1009.25 1009.72 1010.21 1010.70 1011.16 1011.57 1011.92 1012.20 1012.41 1012.55 1012.64 1012.68 1012.69 1012.70 1012.72 1012.76
1019.63 1019.42 1019.22 1019.02 1018.82 1018.60 1018.35 1018.05 1017.68 1017.22 1016.67 1016.03 1015.28 1014.46 1013.58 1012.66 1011.73 1010.82 1009.97 1009.20 1008.54 1008.00 1007.61 1007.36 1007.26 1007.30 1007.47 1007.76 1008.14 1008.59 1009.08 1009.59 1010.09 1010.55 1010.97 1011.32 1011.61 1011.82 1011.96 1012.05 1012.10 1012.13 1012.15 1012.19
1019.55 1019.38 1019.22 1019.06 1018.91 1018.75 1018.56 1018.33 1018.03 1017.65 1017.17 1016.59 1015.90 1015.11 1014.24 1013.31 1012.35 1011.37 1010.43 1009.54 1008.74 1008.05 1007.48 1007.06 1006.79 1006.66 1006.69 1006.85 1007.12 1007.50 1007.94 1008.42 1008.92 1009.42 1009.88 1010.29 1010.63 1010.91 1011.12 1011.27 1011.36 1011.43 1011.47 1011.51
1019.46 1019.32 1019.19 1019.07 1018.96 1018.85 1018.71 1018.54 1018.32 1018.01 1017.62 1017.12 1016.51 1015.79 1014.98 1014.08 1013.12 1012.13 1011.13 1010.16 1009.24 1008.41 1007.68 1007.08 1006.62 1006.31 1006.16 1006.15 1006.28 1006.53 1006.87 1007.29 1007.75 1008.22 1008.69 1009.12 1009.51 1009.84 1010.11 1010.31 1010.46 1010.56 1010.64 1010.70
1019.41 1019.29 1019.19 1019.09 1019.00 1018.91 1018.82 1018.69 1018.53 1018.30 1017.99 1017.58 1017.07 1016.44 1015.71 1014.88 1013.97 1012.99 1011.98 1010.97 1009.97 1009.03 1008.16 1007.41 1006.77 1006.28 1005.93 1005.74 1005.69 1005.78 1005.98 1006.28 1006.64 1007.05 1007.48 1007.90 1008.29 1008.64 1008.94 1009.19 1009.38 1009.53 1009.65 1009.75
1019.39 1019.29 1019.19 1019.09 1019.00 1018.93 1018.85 1018.75 1018.63 1018.46 1018.22 1017.90 1017.48 1016.95 1016.32 1015.58 1014.75 1013.83 1012.85 1011.84 1010.81 1009.81 1008.85 1007.97 1007.19 1006.53 1006.00 1005.63 1005.39 1005.30 1005.33 1005.47 1005.70 1006.00 1006.34 1006.70 1007.05 1007.39 1007.69 1007.96 1008.18 1008.38 1008.54 1008.67
1019.37 1019.26 1019.15 1019.04 1018.94 1018.85 1018.76 1018.67 1018.57 1018.43 1018.25 1018.00 1017.67 1017.24 1016.72 1016.08 1015.35 1014.52 1013.61 1012.64 1011.64 1010.62 1009.62 1008.67 1007.79 1007.01 1006.34 1005.79 1005.38 1005.11 1004.96 1004.93 1004.99 1005.14 1005.36 1005.61 1005.89 1006.17 1006.44 1006.70 1006.93 1007.15 1007.35 1007.53
1019.27 1019.15 1019.02 1018.89 1018.76 1018.64 1018.53 1018.43 1018.32 1018.20 1018.05 1017.85 1017.59 1017.25 1016.83 1016.30 1015.68 1014.96 1014.15 1013.27 1012.32 1011.35 1010.37 1009.40 1008.48 1007.62 1006.85 1006.19 1005.63 1005.20 1004.88 1004.67 1004.57 1004.55 1004.61 1004.73 1004.90 1005.09 1005.30 1005.51 1005.74 1005.96 1006.17 1006.39
1019.03 1018.89 1018.74 1018.58 1018.42 1018.26 1018.12 1017.99 1017.87 1017.75 1017.61 1017.44 1017.24 1016.97 1016.63 1016.21 1015.69 1015.09 1014.39 1013.62 1012.78 1011.89 1010.98 1010.05 1009.15 1008.28 1007.47 1006.73 1006.08 1005.52 1005.07 1004.71 1004.44 1004.26 1004.17 1004.14 1004.17 1004.25 1004.37 1004.53 1004.71 1004.91 1005.13 1005.36
Thickness
5723 5727 5727 5722 5715 5708 5698 5688 5681 5687 5693 5699 5699 5696 5693 5690 5687 5685 5683 5682 5681 5678 5676 5675 5672 5670 5667 5663 5659 5655 5650 5646 5643 5640 5637 5635 5632 5630 5629 5627 5626 5625 5625 5624
5726 5732 5729 5725 5723 5715 5708 5706 5700 5700 5701 5715 5713 5704 5697 5694 5691 5688 5687 5686 5685 5684 5681 5678 5675 5672 5669 5665 5661 5657 5652 5647 5644 5641 5637 5634 5631 5628 5626 5624 5623 5622 5620 5619
5710 5724 5726 5715 5727 5723 5720 5721 5714 5705 5711 5716 5710 5705 5702 5700 5697 5694 5692 5691 5689 5687 5684 5682 5679 5676 5672 5668 5663 5658 5653 5649 5645 5641 5637 5633 5630 5627 5624 5622 5620 5618 5616 5615
5707 5714 5708 5727 5748 5745 5734 5733 5730 5728 5726 5720 5719 5716 5713 5709 5704 5700 5699 5696 5694 5691 5689 5686 5684 5681 5677 5671 5665 5660 5654 5650 5646 5641 5637 5633 5629 5626 5623 5621 5618 5615 5613 5610
5699 5701 5708 5733 5748 5747 5736 5732 5740 5733 5731 5726 5725 5717 5713 5716 5713 5709 5705 5702 5698 5696 5693 5690 5686 5683 5678 5672 5666 5661 5656 5652 5647 5643 5638 5633 5629 5626 5623 5620 5616 5613 5609 5605
5699 5703 5704 5728 5751 5755 5741 5727 5744 5741 5734 5728 5719 5701 5708 5721 5719 5715 5712 5708 5704 5700 5697 5692 5689 5685 5679 5673 5667 5663 5659 5654 5650 5645 5640 5635 5631 5627 5623 5619 5616 5612 5607 5602
5697 5696 5706 5737 5753 5748 5720 5724 5748 5748 5740 5731 5723 5723 5728 5729 5724 5720 5715 5712 5709 5704 5699 5695 5692 5687 5680 5674 5670 5667 5663 5658 5653 5648 5643 5638 5633 5629 5624 5620 5615 5611 5605 5599
5690 5693 5707 5747 5746 5733 5735 5749 5753 5753 5747 5739 5736 5735 5733 5730 5726 5721 5717 5714 5711 5705 5701 5698 5694 5689 5683 5677 5676 5671 5666 5661 5656 5651 5647 5642 5636 5630 5625 5620 5615 5609 5604 5598
5710 5717 5739 5748 5749 5754 5753 5751 5756 5753 5752 5746 5740 5736 5733 5730 5727 5723 5719 5716 5712 5707 5703 5700 5697 5692 5686 5683 5680 5674 5669 5664 5659 5655 5650 5644 5638 5632 5626 5620 5614 5609 5603 5598
5723 5733 5745 5750 5751 5754 5755 5755 5758 5758 5755 5748 5742 5738 5734 5730 5727 5723 5720 5717 5713 5708 5703 5701 5699 5696 5692 5690 5684 5678 5672 5667 5662 5657 5652 5647 5641 5635 5628 5622 5616 5612 5606 5600
5725 5733 5743 5751 5752 5754 5755 5755 5754 5756 5754 5749 5744 5739 5734 5730 5727 5724 5722 5719 5715 5710 5706 5704 5702 5698 5696 5693 5687 5681 5676 5671 5667 5661 5656 5650 5645 5639 5633 5628 5621 5615 5610 5604
5714 5726 5727 5734 5743 5749 5748 5748 5749 5749 5748 5747 5743 5739 5735 5731 5729 5726 5722 5719 5715 5712 5709 5707 5705 5701 5699 5695 5690 5684 5679 5674 5670 5665 5659 5654 5648 5643 5639 5633 5629 5623 5618 5612
5710 5719 5724 5726 5729 5732 5734 5738 5742 5742 5740 5739 5739 5738 5735 5731 5729 5726 5723 5720 5717 5714 5712 5710 5706 5703 5702 5698 5693 5687 5682 5678 5673 5668 5663 5658 5652 5647 5642 5639 5635 5630 5625 5620
5705 5710 5709 5709 5709 5715 5720 5725 5730 5731 5731 5732 5732 5732 5731 5729 5727 5724 5723 5722 5720 5717 5713 5710 5707 5705 5704 5700 5695 5690 5685 5682 5677 5672 5667 5663 5658 5654 5649 5643 5639 5635 5632 5628
5690 5693 5692 5695 5699 5703 5708 5712 5714 5713 5716 5719 5722 5723 5724 5724 5723 5725 5726 5724 5721 5716 5714 5711 5707 5706 5705 5701 5696 5691 5686 5682 5679 5674 5671 5667 5663 5658 5654 5650 5645 5641 5636 5633
5676 5679 5680 5683 5685 5687 5691 5693 5694 5696 5700 5704 5708 5712 5716 5719 5722 5724 5724 5722 5717 5716 5715 5712 5710 5709 5706 5701 5696 5692 5687 5685 5681 5676 5672 5668 5664 5661 5657 5654 5650 5646 5642 5639
5663 5664 5664 5664 5665 5668 5670 5672 5675 5679 5684 5689 5693 5700 5705 5710 5713 5716 5718 5719 5720 5721 5719 5715 5713 5711 5708 5703 5698 5692 5688 5685 5683 5677 5673 5670 5667 5664 5661 5658 5654 5651 5649 5647
5648 5647 5647 5647 5647 5649 5651 5654 5657 5661 5666 5672 5679 5685 5690 5694 5698 5705 5710 5713 5714 5716 5716 5715 5714 5711 5708 5704 5699 5694 5689 5685 5681 5677 5674 5671 5669 5667 5664 5661 5659 5656 5654 5651
5631 5631 5631 5632 5633 5633 5634 5636 5639 5643 5647 5653 5659 5664 5669 5675 5682 5691 5699 5702 5704 5707 5712 5712 5711 5709 5706 5703 5699 5693 5689 5684 5680 5677 5675 5673 5670 5667 5665 5663 5661 5659 5657 5653
5613 5614 5615 5615 5616 5617 5617 5619 5622 5625 5629 5633 5637 5642 5648 5655 5663 5673 5682 5688 5695 5700 5705 5706 5706 5704 5703 5701 5697 5692 5688 5684 5681 5677 5674 5671 5669 5668 5666 5665 5663 5661 5659 5657
5596 5596 5597 5597 5598 5599 5600 5601 5604 5607 5610 5613 5615 5618 5624 5631 5640 5648 5657 5667 5676 5681 5687 5694 5697 5699 5698 5696 5693 5690 5686 5683 5680 5677 5673 5671 5669 5668 5666 5665 5664 5663 5661 5660
5580 5579 5580 5580 5580 5581 5582 5583 5585 5588 5591 5593 5595 5598 5603 5609 5616 5623 5630 5637 5648 5658 5667 5677 5683 5688 5690 5689 5687 5685 5683 5681 5678 5676 5672 5670 5668 5666 5666 5665 5664 5664 5663 5661
5563 5563 5563 5563 5563 5563 5564 5566 5567 5568 5570 5572 5573 5576 5579 5583 5588 5595 5603 5613 5621 5633 5645 5656 5664 5672 5677 5679 5679 5679 5678 5677 5675 5673 5671 5669 5667 5666 5665 5664 5664 5663 5662 5661
5552 5551 5550 5549 5547 5546 5546 5547 5548 5549 5549 5550 5552 5553 5555 5560 5566 5569 5575 5585 5595 5607 5619 5630 5641 5652 5660 5665 5668 5669 5670 5670 5669 5668 5667 5666 5665 5663 5662 5662 5661 5661 5661 5661
5540 5538 5536 5534 5531 5530 5529 5529 5528 5528 5529 5529 5530 5531 5533 5535 5538 5545 5551 5558 5567 5579 5590 5602 5614 5626 5637 5645 5651 5656 5659 5661 5661 5661 5660 5659 5659 5659 5659 5658 5658 5658 5658 5658
5526 5523 5521 5519 5516 5514 5512 5509 5507 5507 5506 5507 5507 5508 5510 5512 5515 5519 5525 5532 5539 5548 5558 5569 5580 5593 5605 5616 5627 5634 5640 5645 5648 5650 5651 5652 5653 5653 5653 5653 5654 5654 5655 5655
5512 5508 5505 5503 5501 5498 5495 5492 5488 5487 5485 5484 5484 5485 5486 5488 5490 5494 5498 5505 5511 5519 5527 5537 5547 5558 5570 5583 5595 5606 5615 5623 5629 5634 5638 5641 5643 5645 5646 5647 5648 5648 5649 5649